Wisconsin Rapids, WI

8:11 PM CDT on April 20, 2018 (GMT -0500)
Alexander Field South Wood County

Weather History for KISW - March, 2013

Change the Weather History Date:

Friday, March 22, 2013

  Actual Average Record
Temperature  
Mean Temperature 17 °F -  
Max Temperature 34 °F 44 °F 73 °F (2012)
Min Temperature 1 °F 19 °F -8 °F (1989)
Degree Days  
Heating Degree Days 48    
Moisture  
Dew Point 8 °F    
Average Humidity 64    
Maximum Humidity 92    
Minimum Humidity 40    
Precipitation  
Precipitation 0.00 in - - ()
Sea Level Pressure  
Sea Level Pressure 30.09 in    
Wind  
Wind Speed 2 mph (NNW)    
Max Wind Speed 9 mph    
Max Gust Speed -    
Visibility 10 miles    
Events      
Averages and records for this station are not official NWS values.
T = Trace of Precipitation, MM = Missing Value Source: NWS Daily Summary

Daily Weather History Graph

Daily Weather History Graph

Search for Another Location

Airport or City:

Astronomy

Mar. 22, 2013 Rise Set
Actual Time 6:58 AM CDT 7:14 PM CDT
Civil Twilight 6:29 AM CDT 7:43 PM CDT
Nautical Twilight 5:55 AM CDT 8:17 PM CDT
Astronomical Twilight 5:20 AM CDT 8:52 PM CDT
Moon 2:32 PM CDT (3/22) 4:08 AM CDT (3/22)
Length of Visible Light 13h 14m
Length of Day
12h 16m
Waxing Gibbous, 77% of the Moon is Illuminated
Mar 22
Waxing Gibbous
Mar 27
Full
Apr 2
Last Quarter
Apr 10
New
Apr 18
First Quarter

Hourly Weather History & Observations

Time (CDT) Temp. Windchill Dew Point Humidity Pressure Visibility Wind Dir Wind Speed Gust Speed Precip Events Conditions
12:54 AM 8.1 °F - 3.0 °F 80% 30.09 in 10.0 mi Calm Calm - N/A   Clear
1:54 AM 10.0 °F - 3.9 °F 76% 30.10 in 10.0 mi Calm Calm - N/A   Clear
2:54 AM 8.1 °F - 3.0 °F 80% 30.09 in 10.0 mi Calm Calm - N/A   Clear
3:54 AM 7.0 °F - 1.9 °F 80% 30.09 in 10.0 mi Calm Calm - N/A   Clear
4:54 AM 7.0 °F - -0.0 °F 73% 30.09 in 10.0 mi Calm Calm - N/A   Clear
5:54 AM 3.0 °F - -2.0 °F 80% 30.10 in 10.0 mi Calm Calm - N/A   Clear
6:54 AM 1.9 °F - -2.9 °F 80% 30.10 in 10.0 mi Calm Calm - N/A   Clear
7:54 AM 3.0 °F - -0.9 °F 84% 30.11 in 10.0 mi Calm Calm - N/A   Clear
8:54 AM 10.9 °F - 9.0 °F 92% 30.12 in 7.0 mi Calm Calm - N/A   Clear
9:54 AM 21.9 °F 15.7 °F 9.0 °F 58% 30.10 in 10.0 mi NNE 4.6 mph - N/A   Clear
10:54 AM 27.0 °F 20.5 °F 10.9 °F 51% 30.10 in 10.0 mi Variable 5.8 mph - N/A   Clear
11:54 AM 28.0 °F 19.3 °F 12.0 °F 51% 30.09 in 10.0 mi NW 9.2 mph - N/A   Clear
12:54 PM 30.9 °F 23.5 °F 12.0 °F 46% 30.09 in 10.0 mi North 8.1 mph - N/A   Clear
1:54 PM 32.0 °F 24.2 °F 12.0 °F 44% 30.07 in 10.0 mi NNE 9.2 mph - N/A   Clear
2:54 PM 32.0 °F 25.6 °F 12.0 °F 44% 30.06 in 10.0 mi North 6.9 mph - 0.00 in   Clear
3:54 PM 32.0 °F 27.5 °F 14.0 °F 48% 30.06 in 10.0 mi WNW 4.6 mph - 0.00 in   Clear
4:54 PM 33.1 °F 26.9 °F 10.9 °F 40% 30.06 in 10.0 mi NNW 6.9 mph - N/A   Clear
5:54 PM 32.0 °F 25.6 °F 12.9 °F 45% 30.08 in 10.0 mi NNW 6.9 mph - N/A   Clear
6:54 PM 30.9 °F 26.2 °F 12.9 °F 47% 30.09 in 10.0 mi NNW 4.6 mph - N/A   Clear
7:54 PM 24.1 °F - 12.9 °F 62% 30.09 in 10.0 mi Calm Calm - N/A   Clear
8:54 PM 24.1 °F - 12.9 °F 62% 30.09 in 10.0 mi Calm Calm - N/A   Clear
9:54 PM 21.0 °F - 12.0 °F 68% 30.09 in 10.0 mi Calm Calm - N/A   Clear
10:54 PM 21.0 °F - 12.9 °F 71% 30.10 in 10.0 mi Calm Calm - N/A   Clear
11:54 PM 15.1 °F - 10.9 °F 84% 30.11 in 10.0 mi Calm Calm - N/A   Clear